AirNav   Pilot Hours Calculator
 
 973 users online  

KLHM Lincoln Regional Airport/Karl Harder Field
Lincoln, California, USA

GOING TO LINCOLN?


FAA INFORMATION EFFECTIVE 10 OCTOBER 2019

Location

FAA Identifier: LHM
Lat/Long: 38-54-33.0000N 121-21-04.8000W
38-54.550000N 121-21.080000W
38.9091667,-121.3513333
(estimated)
Elevation: 121.4 ft. / 37.0 m (surveyed)
Variation: 14E (2010)
From city: 3 miles W of LINCOLN, CA
Time zone: UTC -7 (UTC -8 during Standard Time)
Zip code: 95648

Airport Operations

Airport use: Open to the public
Activation date: 07/1944
Control tower: no
ARTCC: OAKLAND CENTER
FSS: RANCHO MURIETA FLIGHT SERVICE STATION
NOTAMs facility: RIU (NOTAM-D service available)
Attendance: MON-FRI 0600-1700
Wind indicator: lighted
Segmented circle: yes
Lights: ACTVT MALSR RWY 15; MIRL RWY 15/33, HELI PERIMETER LGTS - CTAF. PAPI RWYS 15 & 33 TURNED ON DURING DALGT HRS, AFTER DARK ACTVT - CTAF.
Beacon: white-green (lighted land airport)
Operates sunset to sunrise.

Airport Communications

CTAF/UNICOM: 123.0
WX AWOS-3: 124.25 (916-645-0698)
NORCAL APPROACH: 125.4 [1530-0800Z++ MON-THU. 1530-0130Z++ FRI, 1800-0200Z++ SAT, 2100-0500Z++ SUN]
NORCAL DEPARTURE: 125.4 [1530-0800Z++ MON-THU. 1530-0130Z++ FRI, 1800-0200Z++ SAT, 2100-0500Z++ SUN]
WX AWOS-3 at AUN (13 nm E): 119.375 (530-888-8934)
WX AWOS-3 at MCC (15 nm S): 125.975 (916-641-1272)
WX ASOS at MYV (15 nm NW): 118.475 (530-742-0695)
WX ASOS at SMF (17 nm SW): PHONE 916-649-3996

Nearby radio navigation aids

VOR radial/distance  VOR name  Freq  Var
MCCr353/14.7MC CLELLAN VOR/DME109.2017E
MYVr122/15.4MARYSVILLE VOR/DME110.8016E
SACr002/29.5SACRAMENTO VORTAC115.2017E
HNWr274/30.2HANGTOWN VOR/DME115.5017E
ILAr089/33.0WILLIAMS VORTAC114.4018E

Airport Services

Fuel available: 100LL JET-A
FOR JET A AND 100LL FUEL TRUCK CTC (916) 257-4854, 0600-1700. SELF SVC FUEL AVBL 24 HRS.
Parking: tiedowns
Airframe service: MAJOR
Powerplant service: MAJOR
Bottled oxygen: NONE
Bulk oxygen: NONE

Runway Information

Runway 15/33

Dimensions: 6001 x 100 ft. / 1829 x 30 m
Surface: asphalt, in good condition
Weight bearing capacity: 
Single wheel: 30.0
Double wheel: 60.0
Runway edge lights: medium intensity
RUNWAY 15  RUNWAY 33
Latitude: 38-55.027855N38-54.071655N
Longitude: 121-21.240792W121-20.919870W
Elevation: 119.8 ft.119.7 ft.
Traffic pattern: leftleft
Runway heading: 151 magnetic, 165 true331 magnetic, 345 true
Markings: precision, in good conditionnonprecision, in good condition
Visual slope indicator: 4-light PAPI on left (3.00 degrees glide path)4-light PAPI on left (3.00 degrees glide path)
Approach lights: MALSR: 1,400 foot medium intensity approach lighting system with runway alignment indicator lights
Runway end identifier lights: nono
Touchdown point: yes, no lightsyes, no lights
Instrument approach: ILS/DME
Obstructions: 25 ft. tree, 1000 ft. from runway, 32:1 slope to clear40 ft. trees, 1600 ft. from runway, 35:1 slope to clear

Helipad H1

Dimensions: 60 x 60 ft. / 18 x 18 m
Surface: concrete
Runway edge lights: PERI
Latitude: 38-54.208117N
Longitude: 121-20.726117W
Elevation: 118.0 ft.
Traffic pattern: leftleft

Airport Ownership and Management from official FAA records

Ownership: Publicly-owned
Owner: CITY OF LINCOLN
600 6TH STREET
LINCOLN, CA 95648
Phone (916) 434-2450
Manager: TONY LATTUCA
1480 FLIGHTLINE DR.
LINCOLN, CA 95648
Phone 916-645-3443
AIRPORT@CI.LINCOLN.CA.US, JHANSON@CI.LINCOLN.CA.US

Airport Operational Statistics

Aircraft based on the field: 85
Single engine airplanes: 80
Multi engine airplanes: 3
Helicopters: 2
    
Aircraft operations: avg 204/day *
50% local general aviation
46% transient general aviation
4% air taxi
* for 12-month period ending 31 December 2017

Additional Remarks

A30A-15 RY 15 CALM WND RY.
FOR CD CTC NORCAL APCH AT 916-361-6874.
PWRD PRCHT ACT SW QUAD OF ARPT.

Instrument Procedures

NOTE: All procedures below are presented as PDF files. If you need a reader for these files, you should download the free Adobe Reader.

NOT FOR NAVIGATION. Please procure official charts for flight.
FAA instrument procedures published for use from 10 October 2019 at 0901Z to 7 November 2019 at 0900Z.

 
IAPs - Instrument Approach Procedures
ILS OR LOC RWY 15   download (253KB)
RNAV (GPS) RWY 15   download (208KB)
RNAV (GPS) RWY 33   download (199KB)
NOTE: Special Alternate Minimums apply   download (19KB)
NOTE: Special Take-Off Minimums/Departure Procedures apply   download (128KB)

Other nearby airports with instrument procedures:

KAUN - Auburn Municipal Airport (13 nm E)
KBAB - Beale Air Force Base (14 nm N)
KMCC - Mc Clellan Airfield (15 nm S)
KMYV - Yuba County Airport (15 nm NW)
KSMF - Sacramento International Airport (17 nm SW)
 
Loc | Ops | Rwys | IFR | FBO | Links
Com | Nav | Svcs | Stats | Notes
Area around KLHM (Lincoln Regional Airport/Karl Harder Field)
 
Road maps at: MapQuest Bing Google
 
Aerial photo
WARNING: Photo may not be current or correct
Aerial photo of KLHM (Lincoln Regional Airport/Karl Harder Field)
Photo by Rockne Green
Photo taken 29-Sep-2009

Do you have a better or more recent aerial photo of Lincoln Regional Airport/Karl Harder Field that you would like to share? If so, please send us your photo.

 
Sectional chart

 
Airport distance calculator
Flying to Lincoln Regional Airport/Karl Harder Field? Find the distance to fly.

From to KLHM

Sunrise and sunset
Times for 23-Oct-2019
 Local
(UTC-7)
 Zulu
(UTC)
Morning civil twilight06:5713:57
Sunrise07:2414:24
Sunset18:1501:15
Evening civil twilight18:4301:43

Current date and time
Zulu (UTC)  24-Oct-2019 02:41:03
Local (UTC-7)  23-Oct-2019 19:41:03
 
METAR
KLHM 240215Z AUTO 34009KT 10SM CLR 23/00 A2989 RMK AO1
KAUN 
13nm E 
240215Z AUTO 00000KT 10SM CLR 25/M09 A2998 RMK A01
KBAB 
14nm N 
240158Z AUTO 34009KT 10SM CLR 23/02 A2990 RMK AO2 SLP128 T02280023 $
KMCC 
15nm S 
240220Z AUTO 35010KT 10SM CLR 25/M03 A2991 RMK AO2
KMYV 
15nm NW 
240153Z AUTO 34013KT 10SM CLR 25/M01 A2991 RMK AO2 SLP132 T02501006
KSMF 
17nm SW 
240153Z 33017KT 10SM CLR 26/M01 A2989 RMK AO2 SLP119 T02561006
TAF
KBAB 
14nm N 
231902Z 2319/2501 34012KT 9999 SKC QNH2990INS TEMPO 2320/2324 34015G25KT BECMG 2405/2406 VRB06KT 9999 SKC QNH2997INS BECMG 2417/2418 33009KT 9999 SKC QNH3001INS TX35/2323Z TN15/2413Z
KMCC 
15nm S 
231727Z 2318/2418 34008KT P6SM SKC FM232200 35014G21KT P6SM SKC FM240200 35009KT P6SM SKC
KSMF 
17nm SW 
231727Z 2318/2418 35011KT P6SM SKC FM232100 35017G24KT P6SM SKC FM240100 35011G18KT P6SM SKC
NOTAMs
Click for the latest NOTAMs
NOTAMs are issued by the DoD/FAA and will open in a separate window not controlled by AirNav.

 

 
 

FBO, Fuel Providers, and Aircraft Ground Support

  
 Business Name 
 
 Contact 
 
 Services / Description 
 
Fuel Prices
 
Comments
  
Lincoln Regional Airport/Karl Harder Field 916-645-3443
[web site]
[email]
Airport management, Aviation fuel, Aircraft parking (ramp or tiedown), Hangar leasing / sales, Passenger terminal and lounge, Flight training, ...
 
Crew car   Avis   Hertz   Wireless Internet Access (WiFi)   Wheelchair Accessible  
 
More info about Lincoln Regional Airport/Karl Harder Field
EPIC
100LL Jet A
FS $5.19 $5.26 
SS $4.89 $5.21 
 Updated 10-Oct-2019
 
   1 read write
FS=Full service
SS=Self service
Update Fuel Prices
 

Aviation Businesses, Services, and Facilities

  
 Business Name 
 
 Contact 
 
 Services / Description 
 
Distance
 
Comments
  
Crosswind Properties, LLC 415-899-9908
[web site]
[email]
Hangars, Hangar leasing / sales

More info about Crosswind Properties, LLC
on airport  
   write
Lincoln Skyways 916-645-3449
916-730-0788
[web site]
[email]
Aircraft ground handling, Oxygen service, Hangar leasing / sales, GPU / Power cart, Flight training, Aircraft rental, Aircraft maintenance, Aircraft modifications, ...
 
Cessna Service Center  
 
More info about Lincoln Skyways
on airport  
   write
Kracon Aircraft Refinishing 916-645-1614
no information available

If you are affiliated with Kracon Aircraft Refinishing and would like to show here your services, contact info, web link, logo, and more, click here
on airport  
   write
 

Would you like to see your business listed on this page?

 If your business provides an interesting product or service to pilots, flight crews, aircraft, or users of the Lincoln Regional Airport/Karl Harder Field, you should consider listing it here.  To start the listing process, click on the button below
 
Add a business
 

Other Pages about Lincoln Regional Airport/Karl Harder Field

lincolnca.gov/...
 
Update a link
 
Copyright © AirNav, LLC. All rights reserved. Privacy Policy  Contact